EW4809 Weather Reports


time (UTC)temp
C
wind
direction
speed
KPH
gust
KPH
rain 1hr
cm
rain 24hr
cm
rain mn
cm
humidity
%
barometer
mb
20260905224241 33 20 0.0 0.0 0.00 0.00 0.00 60 1012.1
20260905223735 33 20 0.0 0.0 0.00 0.00 0.00 57 1012.0
20260905223229 33 20 0.0 0.0 0.00 0.00 0.00 56 1011.9
20260905222722 33 20 0.0 1.6 0.00 0.00 0.00 60 1012.0
20260905222438 33 20 0.0 1.6 0.00 0.00 0.00 58 1012.0
20260905221711 33 20 0.0 0.0 0.00 0.00 0.00 58 1012.1
20260905221204 34 20 0.0 0.0 0.00 0.00 0.00 56 1012.1
20260905220659 34 20 0.0 0.0 0.00 0.00 0.00 54 1012.1
20260905220152 35 18 0.0 1.6 0.00 0.00 0.00 55 1012.1
20260905215646 35 18 0.0 1.6 0.00 0.00 0.00 53 1012.0
20260905215141 35 18 0.0 1.6 0.00 0.00 0.00 52 1012.1
20260905214634 35 323 0.0 3.2 0.00 0.00 0.00 52 1012.2
20260905214129 35 252 1.6 6.4 0.00 0.00 0.00 49 1012.2
20260905213622 35 305 0.0 8.0 0.00 0.00 0.00 51 1012.2
20260905213117 35 266 0.0 8.0 0.00 0.00 0.00 50 1012.2
20260905212610 35 308 0.0 1.6 0.00 0.00 0.00 50 1012.2
20260905212105 35 276 0.0 1.6 0.00 0.00 0.00 48 1012.2
20260905211600 35 286 0.0 3.2 0.00 0.00 0.00 48 1012.1
20260905211054 35 18 0.0 4.8 0.00 0.00 0.00 50 1012.1
20260905210547 35 43 1.6 8.0 0.00 0.00 0.00 51 1012.3
20260905210041 36 234 0.0 8.0 0.00 0.00 0.00 47 1012.4
20260905205535 36 354 0.0 4.8 0.00 0.00 0.00 46 1012.4
20260905205028 36 336 0.0 4.8 0.00 0.00 0.00 48 1012.4
20260905204524 35 310 0.0 4.8 0.00 0.00 0.00 48 1012.5
20260905204018 35 254 0.0 8.0 0.00 0.00 0.00 51 1012.6
20260905203510 35 300 1.6 8.0 0.00 0.00 0.00 51 1012.6
20260905203223 35 248 0.0 4.8 0.00 0.00 0.00 48 1012.6
20260905202459 35 231 0.0 4.8 0.00 0.00 0.00 47 1012.6
20260905201952 35 284 0.0 6.4 0.00 0.00 0.00 51 1012.7
20260905201448 35 307 0.0 6.4 0.00 0.00 0.00 48 1012.9
20260905200940 35 59 0.0 4.8 0.00 0.00 0.00 51 1012.9
20260905200655 35 294 1.6 11.3 0.00 0.00 0.00 49 1013.0
20260905195928 35 27 1.6 11.3 0.00 0.00 0.00 52 1013.1
20260905195422 35 287 1.6 8.0 0.00 0.00 0.00 48 1013.1
20260905194918 35 235 0.0 8.0 0.00 0.00 0.00 49 1013.1
20260905194630 35 244 0.0 6.4 0.00 0.00 0.00 50 1013.2
20260905193904 35 315 0.0 0.0 0.00 0.00 0.00 49 1013.3
20260905193359 35 309 1.6 4.8 0.00 0.00 0.00 49 1013.4
20260905192852 35 129 1.6 4.8 0.00 0.00 0.00 49 1013.5
20260905192608 35 200 1.6 4.8 0.00 0.00 0.00 49 1013.5
20260905191842 34 302 1.6 4.8 0.00 0.00 0.00 48 1013.5
20260905191335 35 222 0.0 4.8 0.00 0.00 0.00 49 1013.6
20260905190828 34 223 1.6 4.8 0.00 0.00 0.00 52 1013.8
20260905190323 33 62 1.6 6.4 0.00 0.00 0.00 52 1013.8
20260905190050 33 214 1.6 6.4 0.00 0.00 0.00 51 1013.8
20260905185323 33 188 1.6 6.4 0.00 0.00 0.00 51 1013.9
20260905184823 33 61 1.6 6.4 0.00 0.00 0.00 52 1013.9
20260905184321 34 211 1.6 6.4 0.00 0.00 0.00 49 1013.9
20260905184040 34 254 0.0 6.4 0.00 0.00 0.00 51 1014.0
20260905183320 34 208 1.6 8.0 0.00 0.00 0.00 51 1014.0
20260905183043 34 190 0.0 8.0 0.00 0.00 0.00 49 1014.0
20260905182319 34 224 0.0 4.8 0.00 0.00 0.00 50 1014.0
20260905181819 34 225 0.0 6.4 0.00 0.00 0.00 49 1014.3
20260905181322 34 61 1.6 6.4 0.00 0.00 0.00 51 1014.5
20260905180817 34 240 0.0 6.4 0.00 0.00 0.00 49 1014.6
20260905180317 33 327 0.0 6.4 0.00 0.00 0.00 53 1014.5
20260905180124 33 221 1.6 8.0 0.00 0.00 0.00 49 1014.6
20260905180015 33 358 1.6 8.0 0.00 0.00 0.00 50 1014.7
20260905174816 33 4 0.0 3.2 0.00 0.00 0.00 51 1014.7
20260905174314 33 207 0.0 6.4 0.00 0.00 0.00 52 1014.8
20260905173809 32 236 1.6 8.0 0.00 0.00 0.00 51 1014.7
20260905173304 32 210 1.6 8.0 0.00 0.00 0.00 51 1014.8
20260905173024 33 221 1.6 6.4 0.00 0.00 0.00 53 1014.9
20260905172305 32 245 0.0 6.4 0.00 0.00 0.00 52 1015.0
20260905172033 32 15 0.0 3.2 0.00 0.00 0.00 56 1015.0
20260905171304 32 258 0.0 3.2 0.00 0.00 0.00 53 1015.0
20260905170805 32 118 0.0 1.6 0.00 0.00 0.00 54 1015.0
20260905170305 32 78 0.0 3.2 0.00 0.00 0.00 55 1015.0
20260905165805 32 5 0.0 4.8 0.00 0.00 0.00 56 1015.1
20260905165306 32 271 0.0 4.8 0.00 0.00 0.00 53 1015.2
20260905164803 32 98 0.0 4.8 0.00 0.00 0.00 54 1015.4
20260905164303 32 248 0.0 4.8 0.00 0.00 0.00 54 1015.5
20260905163803 31 41 0.0 1.6 0.00 0.00 0.00 58 1015.6
20260905163258 31 1 0.0 1.6 0.00 0.00 0.00 58 1015.7
20260905162758 31 62 0.0 1.6 0.00 0.00 0.00 57 1015.8
20260905162300 31 6 0.0 4.8 0.00 0.00 0.00 57 1015.8
20260905161758 31 115 1.6 6.4 0.00 0.00 0.00 58 1015.7
20260905161259 30 231 0.0 6.4 0.00 0.00 0.00 58 1015.5
20260905160758 30 229 0.0 8.0 0.00 0.00 0.00 59 1015.5
20260905160258 30 83 1.6 8.0 0.00 0.00 0.00 60 1015.6
20260905160023 30 257 0.0 8.0 0.00 0.00 0.00 61 1015.6
20260905155258 30 190 0.0 8.0 0.00 0.00 0.00 64 1015.6
20260905155019 30 233 1.6 11.3 0.00 0.00 0.00 63 1015.6
20260905154524 30 149 1.6 11.3 0.00 0.00 0.00 62 1015.7
20260905153801 30 149 0.0 8.0 0.00 0.00 0.00 67 1015.6
20260905153301 29 117 1.6 11.3 0.00 0.00 0.00 65 1015.6
20260905152803 29 65 1.6 11.3 0.00 0.00 0.00 65 1015.6
20260905152259 29 222 0.0 3.2 0.00 0.00 0.00 65 1015.6
20260905152017 28 77 0.0 8.0 0.00 0.00 0.00 67 1015.5
20260905151521 28 112 1.6 8.0 0.00 0.00 0.00 66 1015.6
20260905150759 28 254 0.0 6.4 0.00 0.00 0.00 67 1015.6
20260905150300 28 94 0.0 4.8 0.00 0.00 0.00 67 1015.6
20260905145758 28 134 0.0 6.4 0.00 0.00 0.00 70 1015.6
20260905145259 28 70 0.0 6.4 0.00 0.00 0.00 71 1015.7
20260905144758 27 249 0.0 3.2 0.00 0.00 0.00 73 1015.9
20260905144256 27 221 0.0 4.8 0.00 0.00 0.00 74 1015.9
20260905143756 27 50 0.0 4.8 0.00 0.00 0.00 72 1016.0
20260905143255 27 246 0.0 4.8 0.00 0.00 0.00 71 1016.0
20260905142754 26 46 0.0 4.8 0.00 0.00 0.00 75 1016.1
20260905142254 26 57 0.0 3.2 0.00 0.00 0.00 74 1016.2
20260905142236 26 77 0.0 3.2 0.00 0.00 0.00 74 1016.3
20260905141253 26 62 0.0 0.0 0.00 0.00 0.00 77 1016.3
20260905140753 26 64 0.0 4.8 0.00 0.00 0.00 77 1016.4
20260905140254 25 73 0.0 4.8 0.00 0.00 0.00 79 1016.5
20260905135746 25 53 0.0 6.4 0.00 0.00 0.00 78 1016.4
20260905135240 25 67 0.0 6.4 0.00 0.00 0.00 79 1016.4
20260905134735 25 39 0.0 8.0 0.00 0.00 0.00 81 1016.3
20260905134228 24 56 1.6 8.0 0.00 0.00 0.00 81 1016.2
20260905133723 24 62 1.6 8.0 0.00 0.00 0.00 82 1016.4
20260905133222 23 51 3.2 9.7 0.00 0.00 0.00 83 1016.5
20260905132945 23 48 3.2 9.7 0.00 0.00 0.00 83 1016.8
20260905132221 23 57 3.2 9.7 0.00 0.00 0.00 85 1016.9
20260905131718 23 72 1.6 8.0 0.00 0.00 0.00 86 1016.8
20260905131220 23 108 0.0 4.8 0.00 0.00 0.00 88 1017.0
20260905130718 23 100 1.6 6.4 0.00 0.00 0.00 88 1017.2
20260905130218 23 103 1.6 6.4 0.00 0.00 0.00 88 1017.0
20260905125719 22 53 0.0 3.2 0.00 0.00 0.00 89 1016.8
20260905125221 -17 0.0 0.0 0.00 0.00 0.00 1016.8
20260905124718 -17 0.0 0.0 0.00 0.00 0.00 1016.8
20260905124124 -17 0.0 0.0 0.00 0.00 0.00 1016.7
20260905123625 -17 0.0 0.0 0.00 0.00 0.00 1016.7
20260905123253 -17 0.0 0.0 0.00 0.00 0.00 1016.6
20260905122742 -17 0.0 0.0 0.00 0.00 0.00 1016.7
20260905121928 -17 0.0 0.0 0.00 0.00 0.00 1016.5
20260905121645 -17 0.0 0.0 0.00 0.00 0.00 1016.5
20260905121055 -17 0.0 0.0 0.00 0.00 0.00 1015.3
20260905120333 -17 0.0 0.0 0.00 0.00 0.00 1015.3
20260905115826 -17 0.0 0.0 0.00 0.00 0.00 1015.3
20260905115319 -17 0.0 0.0 0.00 0.00 0.00 1015.2
20260905114725 -17 0.0 0.0 0.00 0.00 0.00 1015.4
20260905114618 -17 0.0 0.0 0.00 0.00 0.00 1015.9
20260905113847 -17 0.0 0.0 0.00 0.00 0.00 1015.9
20260905113120 -17 0.0 0.0 0.00 0.00 0.00 1015.5
20260905112530 -17 0.0 0.0 0.00 0.00 0.00 1015.2
20260905112152 -17 0.0 0.0 0.00 0.00 0.00 1015.3
20260905111648 -17 0.0 0.0 0.00 0.00 0.00 1015.3
20260905110927 -17 0.0 0.0 0.00 0.00 0.00 1015.6
20260905110423 -17 0.0 0.0 0.00 0.00 0.00 1015.3
20260905105920 -17 0.0 0.0 0.00 0.00 0.00 1015.3
20260905105548 -17 0.0 0.0 0.00 0.00 0.00 1015.1
20260905105314 -17 0.0 0.0 0.00 0.00 0.00 1015.1
20260905104315 -17 0.0 0.0 0.00 0.00 0.00 1015.1
20260905103722 -17 0.0 0.0 0.00 0.00 0.00 1015.2
20260905103220 -17 0.0 0.0 0.00 0.00 0.00 1015.1
20260905102632 -17 0.0 0.0 0.00 0.00 0.00 1014.7
20260905102121 -17 0.0 0.0 0.00 0.00 0.00 1014.6
20260905101839 -17 0.0 0.0 0.00 0.00 0.00 1014.4
20260905101244 -17 0.0 0.0 0.00 0.00 0.00 1014.5
20260905100431 -17 0.0 0.0 0.00 0.00 0.00 1014.4
20260905100315 -17 0.0 0.0 0.00 0.00 0.00 1014.5
20260905095307 -17 0.0 0.0 0.00 0.00 0.00 1014.3
20260905094725 -17 0.0 0.0 0.00 0.00 0.00 1014.3
20260905094220 -17 0.0 0.0 0.00 0.00 0.00 1014.2
20260905093633 -17 0.0 0.0 0.00 0.00 0.00 1014.0
20260905093114 -17 0.0 0.0 0.00 0.00 0.00 1014.0
20260905092955 -17 0.0 0.0 0.00 0.00 0.00 1014.3
20260905092242 -17 0.0 0.0 0.00 0.00 0.00 1014.5
20260905091431 -17 0.0 0.0 0.00 0.00 0.00 1013.9
20260905090930 -17 0.0 0.0 0.00 0.00 0.00 1013.9
20260905090647 -17 0.0 0.0 0.00 0.00 0.00 1013.7
20260905085826 -17 0.0 0.0 0.00 0.00 0.00 1013.8
20260905085321 23 276 0.0 6.4 0.00 0.00 0.00 92 1014.0
20260905084815 23 276 0.0 0.0 0.00 0.00 0.00 92 1014.3
20260905084517 23 276 0.0 6.4 0.00 0.00 0.00 92 1014.3
20260905083759 23 293 0.0 6.4 0.00 0.00 0.00 93 1014.3
20260905083257 23 352 0.0 0.0 0.00 0.00 0.00 93 1013.7
20260905082758 23 352 0.0 1.6 0.00 0.00 0.00 93 1013.7
20260905082256 23 351 0.0 1.6 0.00 0.00 0.00 93 1013.9
20260905082012 23 9 0.0 0.0 0.00 0.00 0.00 93 1013.7
20260905081254 23 9 0.0 0.0 0.00 0.00 0.00 93 1013.7
20260905081012 23 9 0.0 0.0 0.00 0.00 0.00 93 1013.7
20260905080253 23 9 0.0 0.0 0.00 0.00 0.00 92 1013.7
20260905075747 23 9 0.0 0.0 0.00 0.00 0.00 92 1013.6
20260905075457 23 9 0.0 0.0 0.00 0.00 0.00 92 1013.5
20260905074734 23 9 0.0 0.0 0.00 0.00 0.00 92 1013.6
20260905074229 24 9 0.0 0.0 0.00 0.00 0.00 92 1013.9
20260905073723 24 9 0.0 0.0 0.00 0.00 0.00 92 1013.9
20260905073222 24 9 0.0 0.0 0.00 0.00 0.00 92 1013.9
20260905072719 24 9 0.0 0.0 0.00 0.00 0.00 92 1014.0
20260905072221 24 9 0.0 0.0 0.00 0.00 0.00 92 1014.0
20260905071720 24 9 0.0 1.6 0.00 0.00 0.00 92 1014.2
20260905071219 24 9 0.0 1.6 0.00 0.00 0.00 93 1014.2
20260905070948 24 8 0.0 0.0 0.00 0.00 0.00 92 1014.2
20260905070218 24 8 0.0 0.0 0.00 0.00 0.00 92 1014.2
20260905065718 24 8 0.0 0.0 0.00 0.00 0.00 92 1014.4
20260905065706 24 8 0.0 1.6 0.00 0.00 0.00 92 1014.5
20260905064715 24 8 0.0 1.6 0.00 0.00 0.00 92 1014.5
20260905064215 24 6 0.0 0.0 0.00 0.00 0.00 92 1014.5
20260905063715 24 6 0.0 0.0 0.00 0.00 0.00 92 1014.6
20260905063430 24 6 0.0 0.0 0.00 0.00 0.00 92 1014.7
20260905062711 24 6 0.0 0.0 0.00 0.00 0.00 92 1014.7
20260905062211 24 6 0.0 0.0 0.00 0.00 0.00 92 1014.9
20260905061709 24 5 0.0 0.0 0.00 0.00 0.00 92 1014.9
20260905061210 24 5 0.0 0.0 0.00 0.00 0.00 92 1014.9
20260905060709 24 5 0.0 0.0 0.00 0.00 0.00 92 1014.9
20260905060210 24 5 0.0 0.0 0.00 0.00 0.00 92 1014.9
20260905055711 24 5 0.0 0.0 0.00 0.00 0.00 92 1015.0
20260905055209 24 5 0.0 0.0 0.00 0.00 0.00 91 1015.0
20260905054709 24 4 0.0 0.0 0.00 0.00 0.00 91 1015.1
20260905054210 24 5 0.0 0.0 0.00 0.00 0.00 91 1015.1
20260905053710 25 5 0.0 0.0 0.00 0.00 0.00 91 1015.0
20260905053209 25 5 0.0 0.0 0.00 0.00 0.00 91 1015.1
20260905052710 25 5 0.0 0.0 0.00 0.00 0.00 91 1015.1
20260905052649 25 5 0.0 0.0 0.00 0.00 0.00 91 1015.0
20260905051710 25 5 0.0 0.0 0.00 0.00 0.00 91 1015.0
20260905051209 25 5 0.0 0.0 0.00 0.00 0.00 91 1015.1
20260905050709 25 5 0.0 0.0 0.00 0.00 0.00 91 1015.0
20260905050204 25 5 0.0 0.0 0.00 0.00 0.00 91 1015.0
20260905050146 25 5 0.0 0.0 0.00 0.00 0.00 90 1015.0
20260905045414 25 5 0.0 0.0 0.00 0.00 0.00 90 1015.1
20260905044644 25 5 0.0 0.0 0.00 0.00 0.00 90 1015.2
20260905044138 25 4 0.0 0.0 0.00 0.00 0.00 90 1015.3
20260905043631 25 4 0.0 0.0 0.00 0.00 0.00 90 1015.2
20260905043125 25 5 0.0 0.0 0.00 0.00 0.00 90 1015.2
20260905042618 25 5 0.0 0.0 0.00 0.00 0.00 90 1015.3
20260905042119 25 5 0.0 0.0 0.00 0.00 0.00 90 1015.3
20260905041620 25 5 0.0 0.0 0.00 0.00 0.00 90 1015.4
20260905041121 25 5 0.0 0.0 0.00 0.00 0.00 90 1015.3
20260905040617 25 5 0.0 0.0 0.00 0.00 0.00 90 1015.3
20260905040117 25 5 0.0 0.0 0.00 0.00 0.00 90 1015.3
20260905035834 25 4 0.0 0.0 0.00 0.00 0.00 90 1015.3
20260905035334 25 5 0.0 0.0 0.00 0.00 0.00 90 1015.4
20260905034614 25 5 0.0 1.6 0.00 0.00 0.00 90 1015.3
20260905034112 26 5 0.0 1.6 0.00 0.00 0.00 89 1015.3
20260905033613 26 5 0.0 0.0 0.00 0.00 0.00 89 1015.3
20260905033113 26 5 0.0 0.0 0.00 0.00 0.00 89 1015.3
20260905032611 26 5 0.0 0.0 0.00 0.00 0.00 89 1015.3
20260905032111 26 5 0.0 0.0 0.00 0.00 0.00 88 1015.3
20260905031612 26 4 0.0 1.6 0.00 0.00 0.00 88 1015.3
20260905031112 26 5 0.0 1.6 0.00 0.00 0.00 87 1015.4
20260905030842 26 5 0.0 0.0 0.00 0.00 0.00 87 1015.4
20260905030108 26 349 0.0 0.0 0.00 0.00 0.00 87 1015.4
20260905025608 26 349 0.0 0.0 0.00 0.00 0.00 87 1015.4
20260905025105 26 349 0.0 0.0 0.00 0.00 0.00 88 1015.4
20260905024606 26 349 0.0 0.0 0.00 0.00 0.00 87 1015.4
20260905024104 26 349 0.0 0.0 0.00 0.00 0.00 86 1015.4
20260905023602 26 349 0.0 0.0 0.00 0.00 0.00 85 1015.4
20260905023101 26 328 0.0 0.0 0.00 0.00 0.00 85 1015.3
20260905022600 26 328 0.0 0.0 0.00 0.00 0.00 85 1015.3
20260905022057 26 328 0.0 0.0 0.00 0.00 0.00 85 1015.3
20260905021557 26 328 0.0 0.0 0.00 0.00 0.00 85 1015.2
20260905021059 27 328 0.0 0.0 0.00 0.00 0.00 85 1015.2
20260905020805 27 328 0.0 0.0 0.00 0.00 0.00 84 1015.2
20260905020649 27 328 0.0 0.0 0.00 0.00 0.00 85 1015.2
20260905015824 27 328 0.0 0.0 0.00 0.00 0.00 84 1015.2
20260905015057 27 328 0.0 0.0 0.00 0.00 0.00 84 1015.2
20260905015047 27 328 0.0 0.0 0.00 0.00 0.00 84 1015.2
20260905014321 27 328 0.0 0.0 0.00 0.00 0.00 84 1015.1
20260905013558 27 328 0.0 0.0 0.00 0.00 0.00 84 1015.1
20260905013058 27 328 0.0 0.0 0.00 0.00 0.00 82 1015.1
20260905012558 27 328 0.0 0.0 0.00 0.00 0.00 82 1014.9
20260905012058 27 328 0.0 0.0 0.00 0.00 0.00 81 1014.8
20260905011555 28 328 0.0 0.0 0.00 0.00 0.00 81 1014.8
20260905011314 28 328 0.0 0.0 0.00 0.00 0.00 81 1014.7
20260905010554 28 328 0.0 0.0 0.00 0.00 0.00 79 1014.7
20260905010054 28 328 0.0 0.0 0.00 0.00 0.00 78 1014.7
20260905005553 28 316 0.0 0.0 0.00 0.00 0.00 77 1014.4
20260905005053 29 316 0.0 0.0 0.00 0.00 0.00 77 1014.4
20260905004811 29 316 0.0 0.0 0.00 0.00 0.00 77 1014.4
20260905004053 29 316 0.0 0.0 0.00 0.00 0.00 76 1014.3
20260905004023 30 316 0.0 0.0 0.00 0.00 0.00 74 1014.4
20260905003911 30 316 0.0 0.0 0.00 0.00 0.00 75 1014.3
20260905002554 30 315 0.0 0.0 0.00 0.00 0.00 73 1014.3
20260905002318 30 315 0.0 0.0 0.00 0.00 0.00 72 1014.2
20260905001556 31 315 0.0 0.0 0.00 0.00 0.00 71 1014.2
20260905001054 31 315 0.0 0.0 0.00 0.00 0.00 70 1014.2
20260905000814 31 315 0.0 0.0 0.00 0.00 0.00 69 1014.2
20260905000051 32 315 0.0 0.0 0.00 0.00 0.00 67 1014.0
20260904235550 32 315 0.0 0.0 0.00 0.00 0.00 65 1014.2
20260904235306 33 309 0.0 0.0 0.00 0.00 0.00 62 1014.0
20260904234550 34 309 0.0 0.0 0.00 0.00 0.00 60 1014.0
20260904234048 34 307 0.0 0.0 0.00 0.00 0.00 58 1014.0
20260904234029 35 307 0.0 0.0 0.00 0.00 0.00 56 1014.0
20260904233047 36 307 0.0 0.0 0.00 0.00 0.00 53 1014.0
20260904232540 37 307 0.0 0.0 0.00 0.00 0.00 50 1014.0
20260904232033 38 307 0.0 0.0 0.00 0.00 0.00 50 1014.2
20260904231529 37 307 0.0 0.0 0.00 0.00 0.00 51 1014.2
20260904231247 37 306 0.0 0.0 0.00 0.00 0.00 50 1014.2
20260904230517 37 307 0.0 0.0 0.00 0.00 0.00 49 1014.3
20260904230011 37 307 0.0 0.0 0.00 0.00 0.00 48 1014.4
20260904225506 38 307 0.0 0.0 0.00 0.00 0.00 47 1014.4
20260904224959 38 306 0.0 0.0 0.00 0.00 0.00 48 1014.6